TimeEST,TemperatureF,Dew PointF,Humidity,Sea Level PressureIn,VisibilityMPH,Wind Direction,Wind SpeedMPH,Gust SpeedMPH,PrecipitationIn,Events,Conditions,WindDirDegrees,DateUTC
12:58 AM,46.9,46.0,97,29.87,10.0,Calm,Calm,-,N/A,,Clear,0,2014-01-16 05:58:00
1:58 AM,46.0,45.0,96,29.87,10.0,Calm,Calm,-,N/A,,Clear,0,2014-01-16 06:58:00
2:58 AM,50.0,44.1,80,29.86,10.0,NW,9.2,-,N/A,,Clear,310,2014-01-16 07:58:00
3:58 AM,46.9,43.0,86,29.84,10.0,NNW,13.8,-,N/A,,Clear,340,2014-01-16 08:58:00
4:58 AM,44.1,41.0,89,29.84,10.0,North,9.2,-,N/A,,Clear,350,2014-01-16 09:58:00
5:58 AM,43.0,39.0,86,29.86,10.0,North,12.7,-,N/A,,Partly Cloudy,350,2014-01-16 10:58:00
6:58 AM,43.0,39.9,89,29.90,10.0,North,8.1,-,N/A,,Mostly Cloudy,360,2014-01-16 11:58:00
7:10 AM,43.0,39.9,89,29.91,10.0,NNE,8.1,-,N/A,,Overcast,20,2014-01-16 12:10:00
7:58 AM,44.1,42.1,93,29.91,3.0,North,10.4,-,N/A,,Overcast,360,2014-01-16 12:58:00
8:10 AM,44.1,43.0,96,29.91,2.0,North,10.4,20.7,N/A,,Overcast,360,2014-01-16 13:10:00
8:18 AM,45.0,43.0,93,29.91,1.5,North,9.2,20.7,N/A,,Overcast,360,2014-01-16 13:18:00
8:33 AM,45.0,44.1,97,29.90,1.0,North,8.1,-,N/A,,Overcast,10,2014-01-16 13:33:00
8:58 AM,45.0,44.1,97,29.92,1.0,North,15.0,-,N/A,,Overcast,360,2014-01-16 13:58:00
9:40 AM,44.1,44.1,100,29.93,1.2,North,13.8,-,N/A,,Overcast,350,2014-01-16 14:40:00
9:58 AM,43.0,42.1,97,29.94,1.2,North,17.3,-,N/A,,Overcast,350,2014-01-16 14:58:00
10:27 AM,42.1,41.0,96,29.94,2.0,North,17.3,-,N/A,,Overcast,360,2014-01-16 15:27:00
10:44 AM,42.1,41.0,96,29.93,3.0,North,13.8,-,N/A,,Overcast,350,2014-01-16 15:44:00
10:54 AM,42.8,41.0,93,29.92,4.0,North,15.0,23.0,N/A,,Overcast,360,2014-01-16 15:54:00
10:58 AM,42.1,41.0,96,29.92,4.0,North,11.5,25.3,N/A,,Overcast,360,2014-01-16 15:58:00
11:58 AM,42.1,39.9,92,29.91,6.0,North,13.8,-,N/A,,Overcast,350,2014-01-16 16:58:00
12:58 PM,41.0,39.0,93,29.91,6.0,North,11.5,-,N/A,,Overcast,360,2014-01-16 17:58:00
1:58 PM,41.0,37.9,89,29.92,8.0,NNW,12.7,-,N/A,,Overcast,340,2014-01-16 18:58:00
2:41 PM,41.0,37.0,86,29.93,10.0,NNW,10.4,-,N/A,,Overcast,340,2014-01-16 19:41:00
2:58 PM,41.0,37.0,86,29.95,10.0,NNW,6.9,-,N/A,,Overcast,340,2014-01-16 19:58:00
3:58 PM,41.0,37.0,86,29.97,10.0,NNW,9.2,-,N/A,,Overcast,340,2014-01-16 20:58:00
4:34 PM,41.0,36.0,82,29.98,10.0,North,5.8,-,N/A,,Overcast,360,2014-01-16 21:34:00
4:58 PM,41.0,36.0,82,29.99,10.0,NNW,6.9,-,N/A,,Overcast,340,2014-01-16 21:58:00
5:50 PM,39.9,35.1,83,30.01,10.0,NNW,10.4,-,N/A,,Overcast,330,2014-01-16 22:50:00
5:58 PM,39.9,35.1,83,30.01,10.0,NNW,11.5,-,N/A,,Overcast,330,2014-01-16 22:58:00
6:58 PM,39.9,33.1,77,30.03,10.0,NW,8.1,-,N/A,,Overcast,320,2014-01-16 23:58:00
7:58 PM,39.0,32.0,76,30.05,10.0,Calm,Calm,-,N/A,,Mostly Cloudy,0,2014-01-17 00:58:00
8:58 PM,39.0,32.0,76,30.07,10.0,WNW,8.1,-,N/A,,Scattered Clouds,290,2014-01-17 01:58:00
9:58 PM,37.9,30.9,76,30.09,10.0,WNW,4.6,-,N/A,,Clear,290,2014-01-17 02:58:00
10:58 PM,37.9,32.0,79,30.09,10.0,West,3.5,-,N/A,,Clear,280,2014-01-17 03:58:00
11:58 PM,33.1,30.0,89,30.07,10.0,Calm,Calm,-,N/A,,Clear,0,2014-01-17 04:58:00